Time,TemperatureF,DewpointF,PressureIn,WindDirection,WindDirectionDegrees,WindSpeedMPH,WindSpeedGustMPH,Humidity,HourlyPrecipIn,Conditions,Clouds,dailyrainin,SoftwareType,DateUTC
2013-06-13 00:00:00,61.1,56.6,29.96,SSW,211,0.0,1.0,85,0.00,,---,0.00,VWS V14.01,2013-06-13 07:00:00,
2013-06-13 00:02:00,61.1,56.6,29.95,SSW,211,0.0,0.0,85,0.00,,---,0.00,VWS V14.01,2013-06-13 07:02:00,
2013-06-13 00:07:00,61.1,56.6,29.96,SSW,210,0.0,2.0,85,0.00,,---,0.00,VWS V14.01,2013-06-13 07:07:00,
2013-06-13 00:12:00,61.1,56.6,29.96,SSW,211,0.0,2.0,85,0.00,,---,0.00,VWS V14.01,2013-06-13 07:12:00,
2013-06-13 00:15:00,61.1,56.6,29.95,SSW,211,0.0,2.0,85,0.00,,---,0.00,VWS V14.01,2013-06-13 07:15:00,
2013-06-13 00:17:00,61.1,56.6,29.95,SSW,211,0.0,0.0,85,0.00,,---,0.00,VWS V14.01,2013-06-13 07:17:00,
2013-06-13 00:22:00,61.1,56.9,29.95,SSW,211,1.0,4.0,86,0.00,,---,0.00,VWS V14.01,2013-06-13 07:22:00,
2013-06-13 00:27:00,61.1,56.9,29.95,SSW,210,0.0,4.0,86,0.00,,---,0.00,VWS V14.01,2013-06-13 07:27:00,
2013-06-13 00:30:00,61.1,56.9,29.95,SSW,210,0.0,4.0,86,0.00,,---,0.00,VWS V14.01,2013-06-13 07:30:00,
2013-06-13 00:32:00,61.1,56.9,29.95,SSW,211,0.0,0.0,86,0.00,,---,0.00,VWS V14.01,2013-06-13 07:32:00,
2013-06-13 00:37:00,61.1,56.9,29.95,SSW,210,0.0,0.0,86,0.00,,---,0.00,VWS V14.01,2013-06-13 07:37:00,
2013-06-13 00:42:00,61.1,56.6,29.95,WNW,292,0.0,3.0,85,0.00,,---,0.00,VWS V14.01,2013-06-13 07:42:00,
2013-06-13 00:45:00,61.1,56.9,29.95,WNW,291,0.0,3.0,86,0.00,,---,0.00,VWS V14.01,2013-06-13 07:45:00,
2013-06-13 00:47:00,61.0,56.5,29.95,WNW,292,0.0,0.0,85,0.00,,---,0.00,VWS V14.01,2013-06-13 07:47:00,
2013-06-13 00:52:00,61.0,56.8,29.95,WNW,292,0.0,0.0,86,0.00,,---,0.00,VWS V14.01,2013-06-13 07:52:00,
2013-06-13 00:57:00,61.0,56.8,29.95,WNW,292,0.0,0.0,86,0.00,,---,0.00,VWS V14.01,2013-06-13 07:57:00,
2013-06-13 01:00:00,61.0,56.8,29.95,WNW,291,0.0,0.0,86,0.00,,---,0.00,VWS V14.01,2013-06-13 08:00:00,
2013-06-13 01:02:00,61.0,56.8,29.94,WNW,291,0.0,0.0,86,0.00,,---,0.00,VWS V14.01,2013-06-13 08:02:00,
2013-06-13 01:07:00,61.0,56.5,29.94,WNW,292,0.0,0.0,85,0.00,,---,0.00,VWS V14.01,2013-06-13 08:07:00,
2013-06-13 01:12:00,61.1,56.6,29.94,WNW,292,0.0,0.0,85,0.00,,---,0.00,VWS V14.01,2013-06-13 08:12:00,
2013-06-13 01:15:00,61.1,56.6,29.94,WNW,291,0.0,0.0,85,0.00,,---,0.00,VWS V14.01,2013-06-13 08:15:00,
2013-06-13 01:17:00,61.1,56.6,29.94,WNW,291,0.0,0.0,85,0.00,,---,0.00,VWS V14.01,2013-06-13 08:17:00,
2013-06-13 01:22:00,61.1,56.6,29.93,WNW,291,0.0,0.0,85,0.00,,---,0.00,VWS V14.01,2013-06-13 08:22:00,
2013-06-13 01:27:00,61.2,56.7,29.93,NNE,24,2.0,3.0,85,0.00,,---,0.00,VWS V14.01,2013-06-13 08:27:00,
2013-06-13 01:30:00,61.2,56.7,29.93,NNE,25,0.0,3.0,85,0.00,,---,0.00,VWS V14.01,2013-06-13 08:30:00,
2013-06-13 01:32:00,61.2,56.7,29.93,NNE,24,0.0,1.0,85,0.00,,---,0.00,VWS V14.01,2013-06-13 08:32:00,
2013-06-13 01:37:00,61.1,56.2,29.93,NNE,25,0.0,1.0,84,0.00,,---,0.00,VWS V14.01,2013-06-13 08:37:00,
2013-06-13 01:42:00,61.1,56.2,29.93,NNE,24,0.0,1.0,84,0.00,,---,0.00,VWS V14.01,2013-06-13 08:42:00,
2013-06-13 01:45:00,61.2,56.7,29.93,NNE,24,0.0,1.0,85,0.00,,---,0.00,VWS V14.01,2013-06-13 08:45:00,
2013-06-13 01:47:00,61.1,56.2,29.93,NNE,24,0.0,0.0,84,0.00,,---,0.00,VWS V14.01,2013-06-13 08:47:00,
2013-06-13 01:52:00,61.1,56.2,29.93,NNE,25,0.0,0.0,84,0.00,,---,0.00,VWS V14.01,2013-06-13 08:52:00,
2013-06-13 01:57:00,61.0,56.1,29.93,NNE,25,0.0,1.0,84,0.00,,---,0.00,VWS V14.01,2013-06-13 08:57:00,
2013-06-13 02:00:00,61.0,56.1,29.93,NNE,24,3.0,3.0,84,0.00,,---,0.00,VWS V14.01,2013-06-13 09:00:00,
2013-06-13 02:02:00,61.0,55.8,29.93,NNE,28,3.0,5.0,83,0.00,,---,0.00,VWS V14.01,2013-06-13 09:02:00,
2013-06-13 02:07:00,61.0,55.8,29.93,NNE,29,0.0,5.0,83,0.00,,---,0.00,VWS V14.01,2013-06-13 09:07:00,
2013-06-13 02:13:00,60.9,55.7,29.93,NNE,30,1.0,5.0,83,0.00,,---,0.00,VWS V14.01,2013-06-13 09:13:00,
2013-06-13 02:15:00,60.9,55.4,29.93,NNE,30,0.0,5.0,82,0.00,,---,0.00,VWS V14.01,2013-06-13 09:15:00,
2013-06-13 02:18:00,60.9,55.4,29.93,NNE,29,0.0,2.0,82,0.00,,---,0.00,VWS V14.01,2013-06-13 09:18:00,
2013-06-13 02:23:00,60.9,55.4,29.93,NNE,30,0.0,3.0,82,0.00,,---,0.00,VWS V14.01,2013-06-13 09:23:00,
2013-06-13 02:28:00,60.9,55.4,29.93,NNE,30,0.0,3.0,82,0.00,,---,0.00,VWS V14.01,2013-06-13 09:28:00,
2013-06-13 02:30:00,60.9,55.4,29.93,NNE,30,0.0,3.0,82,0.00,,---,0.00,VWS V14.01,2013-06-13 09:30:00,
2013-06-13 02:33:00,60.9,55.7,29.93,NNE,30,0.0,0.0,83,0.00,,---,0.00,VWS V14.01,2013-06-13 09:33:00,
2013-06-13 02:38:00,60.9,55.7,29.93,NNE,30,0.0,0.0,83,0.00,,---,0.00,VWS V14.01,2013-06-13 09:38:00,
2013-06-13 02:43:00,60.9,56.0,29.93,NNE,29,0.0,0.0,84,0.00,,---,0.00,VWS V14.01,2013-06-13 09:43:00,
2013-06-13 02:45:00,60.9,56.0,29.93,NNE,30,0.0,0.0,84,0.00,,---,0.00,VWS V14.01,2013-06-13 09:45:00,
2013-06-13 02:48:00,60.9,56.0,29.93,NNE,30,0.0,0.0,84,0.00,,---,0.00,VWS V14.01,2013-06-13 09:48:00,
2013-06-13 02:53:00,60.9,56.0,29.93,NNE,29,0.0,0.0,84,0.00,,---,0.00,VWS V14.01,2013-06-13 09:53:00,
2013-06-13 02:58:00,60.9,56.0,29.93,NNE,29,2.0,2.0,84,0.00,,---,0.00,VWS V14.01,2013-06-13 09:58:00,
2013-06-13 03:00:00,60.9,55.7,29.93,NNE,30,0.0,2.0,83,0.00,,---,0.00,VWS V14.01,2013-06-13 10:00:00,
2013-06-13 03:03:00,60.9,55.7,29.93,NNE,30,0.0,1.0,83,0.00,,---,0.00,VWS V14.01,2013-06-13 10:03:00,
2013-06-13 03:08:00,60.9,55.7,29.93,NNE,30,0.0,3.0,83,0.00,,---,0.00,VWS V14.01,2013-06-13 10:08:00,
2013-06-13 03:13:00,60.9,55.7,29.92,NNE,32,0.0,5.0,83,0.00,,---,0.00,VWS V14.01,2013-06-13 10:13:00,
2013-06-13 03:15:00,60.9,55.7,29.93,NNE,32,0.0,5.0,83,0.00,,---,0.00,VWS V14.01,2013-06-13 10:15:00,
2013-06-13 03:18:00,60.9,55.7,29.92,NNE,30,0.0,4.0,83,0.00,,---,0.00,VWS V14.01,2013-06-13 10:18:00,
2013-06-13 03:30:00,60.9,55.7,29.93,NNE,22,0.0,4.0,83,0.00,,---,0.00,VWS V14.01,2013-06-13 10:30:00,
2013-06-13 03:45:00,60.9,55.4,29.92,NNE,22,1.0,5.0,82,0.00,,---,0.00,VWS V14.01,2013-06-13 10:45:00,
2013-06-13 04:00:00,61.1,55.6,29.93,NE,45,1.0,4.0,82,0.00,,---,0.00,VWS V14.01,2013-06-13 11:00:00,
2013-06-13 04:15:00,60.9,55.4,29.93,NE,45,1.0,5.0,82,0.00,,---,0.00,VWS V14.01,2013-06-13 11:15:00,
2013-06-13 04:30:00,60.6,55.4,29.94,NE,45,0.0,2.0,83,0.00,,---,0.00,VWS V14.01,2013-06-13 11:30:00,
2013-06-13 04:45:00,60.5,55.7,29.93,NE,45,0.0,4.0,84,0.00,,---,0.00,VWS V14.01,2013-06-13 11:45:00,
2013-06-13 05:00:00,60.5,55.3,29.93,NE,45,0.0,3.0,83,0.00,,---,0.00,VWS V14.01,2013-06-13 12:00:00,
2013-06-13 05:15:00,60.5,55.3,29.94,NE,45,1.0,4.0,83,0.00,,---,0.00,VWS V14.01,2013-06-13 12:15:00,
2013-06-13 05:30:00,60.4,54.9,29.94,NE,45,2.0,5.0,82,0.00,,---,0.00,VWS V14.01,2013-06-13 12:30:00,
2013-06-13 05:45:00,60.2,54.7,29.95,NE,45,2.0,5.0,82,0.00,,---,0.00,VWS V14.01,2013-06-13 12:45:00,
2013-06-13 06:00:00,60.0,54.5,29.95,NE,45,2.0,5.0,82,0.00,,---,0.00,VWS V14.01,2013-06-13 13:00:00,
2013-06-13 06:15:00,59.9,54.4,29.95,NE,45,2.0,5.0,82,0.00,,---,0.00,VWS V14.01,2013-06-13 13:15:00,
2013-06-13 06:30:00,60.1,54.6,29.96,NE,45,1.0,6.0,82,0.00,,---,0.00,VWS V14.01,2013-06-13 13:30:00,
2013-06-13 06:45:00,60.3,54.8,29.96,NE,45,2.0,5.0,82,0.00,,---,0.00,VWS V14.01,2013-06-13 13:45:00,
2013-06-13 07:00:00,60.5,55.0,29.96,NE,45,1.0,4.0,82,0.00,,---,0.00,VWS V14.01,2013-06-13 14:00:00,
2013-06-13 07:15:00,61.0,55.1,29.97,NE,45,1.0,4.0,81,0.00,,---,0.00,VWS V14.01,2013-06-13 14:15:00,
2013-06-13 07:30:00,61.4,55.5,29.97,NE,45,0.0,3.0,81,0.00,,---,0.00,VWS V14.01,2013-06-13 14:30:00,
2013-06-13 07:45:00,62.0,55.8,29.97,NE,45,1.0,4.0,80,0.00,,---,0.00,VWS V14.01,2013-06-13 14:45:00,
2013-06-13 08:00:00,62.5,55.9,29.97,NE,45,0.0,2.0,79,0.00,,---,0.00,VWS V14.01,2013-06-13 15:00:00,
2013-06-13 08:15:00,62.6,56.3,29.97,NE,45,1.0,5.0,80,0.00,,---,0.00,VWS V14.01,2013-06-13 15:15:00,
2013-06-13 08:30:00,63.3,56.7,29.98,NNE,22,1.0,4.0,79,0.00,,---,0.00,VWS V14.01,2013-06-13 15:30:00,
2013-06-13 08:45:00,64.4,57.8,29.98,ENE,68,0.0,4.0,79,0.00,,---,0.00,VWS V14.01,2013-06-13 15:45:00,
2013-06-13 09:00:00,65.0,58.0,29.98,SSW,202,0.0,4.0,78,0.00,,---,0.00,VWS V14.01,2013-06-13 16:00:00,
2013-06-13 09:15:00,65.6,58.6,29.98,SW,225,2.0,7.0,78,0.00,,---,0.00,VWS V14.01,2013-06-13 16:15:00,
2013-06-13 09:30:00,66.5,58.7,29.98,SW,225,3.0,7.0,76,0.00,,---,0.00,VWS V14.01,2013-06-13 16:30:00,
2013-06-13 09:45:00,67.2,58.6,29.98,WSW,248,2.0,6.0,74,0.00,,---,0.00,VWS V14.01,2013-06-13 16:45:00,
2013-06-13 10:00:00,68.7,59.3,29.98,WSW,248,1.0,5.0,72,0.00,,---,0.00,VWS V14.01,2013-06-13 17:00:00,
2013-06-13 10:15:00,70.4,58.9,29.98,SW,225,1.0,5.0,67,0.00,,---,0.00,VWS V14.01,2013-06-13 17:15:00,
2013-06-13 10:30:00,70.7,60.8,29.97,SW,225,3.0,9.0,71,0.00,,---,0.00,VWS V14.01,2013-06-13 17:30:00,
2013-06-13 10:45:00,71.5,61.2,29.97,WSW,248,3.0,9.0,70,0.00,,---,0.00,VWS V14.01,2013-06-13 17:45:00,
2013-06-13 11:00:00,72.0,61.7,29.97,WSW,248,2.0,6.0,70,0.00,,---,0.00,VWS V14.01,2013-06-13 18:00:00,
2013-06-13 11:15:00,73.7,62.1,29.97,WSW,248,2.0,6.0,67,0.00,,---,0.00,VWS V14.01,2013-06-13 18:15:00,
2013-06-13 11:30:00,74.2,62.1,29.97,WSW,248,3.0,7.0,66,0.00,,---,0.00,VWS V14.01,2013-06-13 18:30:00,
2013-06-13 11:45:00,75.1,61.7,29.97,WSW,248,2.0,7.0,63,0.00,,---,0.00,VWS V14.01,2013-06-13 18:45:00,
2013-06-13 12:00:00,75.6,62.6,29.96,SW,225,3.0,8.0,64,0.00,,---,0.00,VWS V14.01,2013-06-13 19:00:00,
2013-06-13 12:15:00,76.5,63.4,29.95,SW,225,3.0,9.0,64,0.00,,---,0.00,VWS V14.01,2013-06-13 19:15:00,
2013-06-13 12:30:00,77.0,63.0,29.95,SW,225,4.0,7.0,62,0.00,,---,0.00,VWS V14.01,2013-06-13 19:30:00,
2013-06-13 12:45:00,76.7,62.7,29.95,West,270,3.0,11.0,62,0.00,,---,0.00,VWS V14.01,2013-06-13 19:45:00,
2013-06-13 13:00:00,78.2,64.1,29.94,WSW,248,3.0,11.0,62,0.00,,---,0.00,VWS V14.01,2013-06-13 20:00:00,
2013-06-13 13:15:00,78.9,63.8,29.94,SW,225,4.0,10.0,60,0.00,,---,0.00,VWS V14.01,2013-06-13 20:15:00,
2013-06-13 13:30:00,78.0,62.5,29.93,West,270,3.0,11.0,59,0.00,,---,0.00,VWS V14.01,2013-06-13 20:30:00,
2013-06-13 13:45:00,78.8,62.3,29.93,SW,225,5.0,12.0,57,0.00,,---,0.00,VWS V14.01,2013-06-13 20:45:00,
2013-06-13 14:00:00,79.0,63.0,29.92,SW,225,5.0,11.0,58,0.00,,---,0.00,VWS V14.01,2013-06-13 21:00:00,
2013-06-13 14:15:00,78.4,62.9,29.92,WSW,248,5.0,10.0,59,0.00,,---,0.00,VWS V14.01,2013-06-13 21:15:00,
2013-06-13 14:30:00,78.5,63.0,29.92,SW,225,6.0,13.0,59,0.00,,---,0.00,VWS V14.01,2013-06-13 21:30:00,
2013-06-13 14:45:00,78.7,62.2,29.92,SW,225,4.0,11.0,57,0.00,,---,0.00,VWS V14.01,2013-06-13 21:45:00,
2013-06-13 15:00:00,78.8,62.8,29.91,SW,225,4.0,9.0,58,0.00,,---,0.00,VWS V14.01,2013-06-13 22:00:00,
2013-06-13 15:15:00,79.0,63.0,29.91,SW,225,2.0,7.0,58,0.00,,---,0.00,VWS V14.01,2013-06-13 22:15:00,
2013-06-13 15:30:00,79.3,62.3,29.90,West,270,4.0,10.0,56,0.00,,---,0.00,VWS V14.01,2013-06-13 22:30:00,
2013-06-13 15:45:00,79.2,62.7,29.89,West,270,3.0,8.0,57,0.00,,---,0.00,VWS V14.01,2013-06-13 22:45:00,
2013-06-13 16:00:00,79.7,61.6,29.89,WSW,248,3.0,9.0,54,0.00,,---,0.00,VWS V14.01,2013-06-13 23:00:00,
2013-06-13 16:15:00,79.1,62.1,29.89,WSW,248,4.0,10.0,56,0.00,,---,0.00,VWS V14.01,2013-06-13 23:15:00,
2013-06-13 16:30:00,79.2,62.2,29.88,West,270,2.0,6.0,56,0.00,,---,0.00,VWS V14.01,2013-06-13 23:30:00,
2013-06-13 16:45:00,79.4,62.3,29.87,SW,225,4.0,10.0,56,0.00,,---,0.00,VWS V14.01,2013-06-13 23:45:00,
2013-06-13 17:00:00,78.5,62.0,29.87,WSW,248,4.0,9.0,57,0.00,,---,0.00,VWS V14.01,2013-06-14 00:00:00,
2013-06-13 17:15:00,78.3,61.8,29.87,West,270,3.0,8.0,57,0.00,,---,0.00,VWS V14.01,2013-06-14 00:15:00,
2013-06-13 17:30:00,77.3,60.9,29.86,WSW,248,4.0,11.0,57,0.00,,---,0.00,VWS V14.01,2013-06-14 00:30:00,
2013-06-13 17:45:00,77.1,60.7,29.86,West,270,3.0,8.0,57,0.00,,---,0.00,VWS V14.01,2013-06-14 00:45:00,
2013-06-13 18:00:00,75.8,60.0,29.87,WSW,248,3.0,6.0,58,0.00,,---,0.00,VWS V14.01,2013-06-14 01:00:00,
2013-06-13 18:15:00,75.1,60.3,29.87,West,270,3.0,7.0,60,0.00,,---,0.00,VWS V14.01,2013-06-14 01:15:00,
2013-06-13 18:30:00,74.5,59.7,29.87,West,270,2.0,9.0,60,0.00,,---,0.00,VWS V14.01,2013-06-14 01:30:00,
2013-06-13 18:45:00,73.7,59.9,29.87,WSW,248,2.0,7.0,62,0.00,,---,0.00,VWS V14.01,2013-06-14 01:45:00,
2013-06-13 19:00:00,73.5,59.7,29.87,WNW,292,1.0,4.0,62,0.00,,---,0.00,VWS V14.01,2013-06-14 02:00:00,
2013-06-13 19:15:00,72.4,59.1,29.88,SW,225,1.0,5.0,63,0.00,,---,0.00,VWS V14.01,2013-06-14 02:15:00,
2013-06-13 19:30:00,70.3,58.8,29.88,SSE,158,1.0,5.0,67,0.00,,---,0.00,VWS V14.01,2013-06-14 02:30:00,
2013-06-13 19:45:00,67.9,57.8,29.88,SSE,158,1.0,7.0,70,0.00,,---,0.00,VWS V14.01,2013-06-14 02:45:00,
2013-06-13 20:00:00,66.0,57.5,29.89,SSE,158,2.0,6.0,74,0.00,,---,0.00,VWS V14.01,2013-06-14 03:00:00,
2013-06-13 20:15:00,64.5,57.1,29.88,SSE,158,1.0,4.0,77,0.00,,---,0.00,VWS V14.01,2013-06-14 03:15:00,
2013-06-13 20:30:00,63.8,57.2,29.89,SSE,158,0.0,3.0,79,0.00,,---,0.00,VWS V14.01,2013-06-14 03:30:00,
2013-06-13 20:45:00,63.1,56.8,29.89,SSE,158,0.0,3.0,80,0.00,,---,0.00,VWS V14.01,2013-06-14 03:45:00,
2013-06-13 21:00:00,62.6,57.0,29.89,SSE,158,0.0,3.0,82,0.00,,---,0.00,VWS V14.01,2013-06-14 04:00:00,
2013-06-13 21:15:00,61.8,56.2,29.89,SSE,158,1.0,4.0,82,0.00,,---,0.00,VWS V14.01,2013-06-14 04:15:00,
2013-06-13 21:30:00,61.3,56.1,29.90,SSE,158,1.0,4.0,83,0.00,,---,0.00,VWS V14.01,2013-06-14 04:30:00,
2013-06-13 21:45:00,60.7,55.8,29.90,SSE,158,0.0,4.0,84,0.00,,---,0.00,VWS V14.01,2013-06-14 04:45:00,
2013-06-13 22:00:00,60.1,55.6,29.91,SSE,158,0.0,3.0,85,0.00,,---,0.00,VWS V14.01,2013-06-14 05:00:00,
2013-06-13 22:30:00,59.4,55.5,29.90,SSE,166,2.0,2.0,87,0.00,,---,0.00,VWS V14.01,2013-06-14 05:30:00,
2013-06-13 22:31:00,60.1,55.6,29.91,SSE,158,0.0,3.0,85,0.00,,---,0.00,VWS V14.01,2013-06-14 05:31:00,
2013-06-13 22:36:00,59.5,55.6,29.90,SSE,165,0.0,2.0,87,0.00,,---,0.00,VWS V14.01,2013-06-14 05:36:00,
2013-06-13 22:41:00,59.6,55.7,29.90,SSE,165,0.0,2.0,87,0.00,,---,0.00,VWS V14.01,2013-06-14 05:41:00,
2013-06-13 22:45:00,59.6,55.7,29.90,SSE,165,0.0,3.0,87,0.00,,---,0.00,VWS V14.01,2013-06-14 05:45:00,
2013-06-13 22:46:00,59.6,55.7,29.90,SSE,165,0.0,0.0,87,0.00,,---,0.00,VWS V14.01,2013-06-14 05:46:00,
2013-06-13 22:51:00,59.6,55.7,29.90,SSE,165,0.0,2.0,87,0.00,,---,0.00,VWS V14.01,2013-06-14 05:51:00,
2013-06-13 22:56:00,59.6,55.7,29.90,SSE,165,0.0,2.0,87,0.00,,---,0.00,VWS V14.01,2013-06-14 05:56:00,
2013-06-13 23:00:00,59.6,55.7,29.90,SSE,166,0.0,3.0,87,0.00,,---,0.00,VWS V14.01,2013-06-14 06:00:00,
2013-06-13 23:01:00,59.7,55.8,29.90,SSE,165,0.0,0.0,87,0.00,,---,0.00,VWS V14.01,2013-06-14 06:01:00,
2013-06-13 23:06:00,59.7,55.8,29.90,SSE,165,0.0,0.0,87,0.00,,---,0.00,VWS V14.01,2013-06-14 06:06:00,
2013-06-13 23:11:00,59.7,55.8,29.90,SSE,166,0.0,0.0,87,0.00,,---,0.00,VWS V14.01,2013-06-14 06:11:00,
2013-06-13 23:15:00,59.7,56.2,29.90,SSE,165,0.0,0.0,88,0.00,,---,0.00,VWS V14.01,2013-06-14 06:15:00,
2013-06-13 23:16:00,59.7,56.2,29.90,SSE,165,0.0,0.0,88,0.00,,---,0.00,VWS V14.01,2013-06-14 06:16:00,
2013-06-13 23:21:00,59.6,55.7,29.90,SSE,165,0.0,3.0,87,0.00,,---,0.00,VWS V14.01,2013-06-14 06:21:00,
2013-06-13 23:26:00,59.5,56.0,29.90,SSE,165,0.0,4.0,88,0.00,,---,0.00,VWS V14.01,2013-06-14 06:26:00,
2013-06-13 23:30:00,59.4,55.8,29.90,SSE,165,0.0,4.0,88,0.00,,---,0.00,VWS V14.01,2013-06-14 06:30:00,
2013-06-13 23:31:00,59.4,55.8,29.90,SSE,165,2.0,2.0,88,0.00,,---,0.00,VWS V14.01,2013-06-14 06:31:00,
2013-06-13 23:36:00,59.5,56.0,29.89,SSE,165,0.0,2.0,88,0.00,,---,0.00,VWS V14.01,2013-06-14 06:36:00,
2013-06-13 23:41:00,59.5,56.0,29.89,SSE,165,2.0,2.0,88,0.00,,---,0.00,VWS V14.01,2013-06-14 06:41:00,
2013-06-13 23:45:00,59.5,56.0,29.89,SSE,165,0.0,5.0,88,0.00,,---,0.00,VWS V14.01,2013-06-14 06:45:00,
2013-06-13 23:46:00,59.4,55.8,29.89,SSE,165,0.0,0.0,88,0.00,,---,0.00,VWS V14.01,2013-06-14 06:46:00,
2013-06-13 23:51:00,59.4,55.8,29.89,SSE,165,1.0,5.0,88,0.00,,---,0.00,VWS V14.01,2013-06-14 06:51:00,
2013-06-13 23:56:00,59.2,55.3,29.89,SSE,165,0.0,5.0,87,0.00,,---,0.00,VWS V14.01,2013-06-14 06:56:00,